Dyess AFB, TX

4:50 PM CST on February 24, 2017 (GMT -0600)
Dyess Air Force Base

Weather History for KDYS - November, 2012

Change the Weather History Date:

Friday, November 9, 2012

  Actual Average Record
Temperature  
Mean Temperature 72 °F -  
Max Temperature 81 °F 64 °F 82 °F (1998)
Min Temperature 63 °F 46 °F 32 °F (2000)
Cooling Degree Days 7    
Growing Degree Days 22 (Base 50)    
Moisture  
Dew Point 56 °F    
Average Humidity 60    
Maximum Humidity 80    
Minimum Humidity 43    
Precipitation  
Precipitation 0.01 in - - ()
Sea Level Pressure  
Sea Level Pressure 29.86 in    
Wind  
Wind Speed 19 mph (South)    
Max Wind Speed 29 mph    
Max Gust Speed 39 mph    
Visibility 10 miles    
Events      
Averages and records for this station are not official NWS values.
T = Trace of Precipitation, MM = Missing Value Source: NWS Daily Summary

Daily Weather History Graph

Daily Weather History Graph

Search for Another Location

Airport or City:

Trip Planner

Search our weather history database for the weather conditions in past years. The results will help you decide how hot, cold, wet, or windy it might be!

Date:

Astronomy

Nov. 09, 2012 Rise Set
Actual Time 7:03 AM CST 5:42 PM CST
Civil Twilight 6:38 AM CST 6:07 PM CST
Nautical Twilight 6:08 AM CST 6:37 PM CST
Astronomical Twilight 5:39 AM CST 7:06 PM CST
Moon 2:20 AM CST (11/9) 2:43 PM CST (11/9)
Length of Visible Light 11h 29m
Length of Day
10h 38m
Waning Crescent, 23% of the Moon is Illuminated
Nov 9
Waning Crescent
Nov 13
New
Nov 20
First Quarter
Nov 28
Full
Dec 6
Last Quarter

Hourly Weather History & Observations

Time (CST) Temp. Heat Index Dew Point Humidity Pressure Visibility Wind Dir Wind Speed Gust Speed Precip Events Conditions
12:55 AM 67.3 °F - 53.6 °F 61% 29.90 in 10.0 mi South 11.5 mph - N/A   Partly Cloudy
1:55 AM 65.5 °F - 53.6 °F 65% 29.88 in 10.0 mi South 18.4 mph 25.3 mph N/A   Partly Cloudy
3:55 AM 64.4 °F - 56.1 °F 74% 29.86 in 10.0 mi South 17.3 mph 23.0 mph N/A   Clear
4:55 AM 63.3 °F - 56.8 °F 79% 29.86 in 10.0 mi South 19.6 mph 26.5 mph N/A   Clear
5:55 AM 63.9 °F - 57.0 °F 78% 29.85 in 10.0 mi South 23.0 mph 32.2 mph N/A   Clear
6:55 AM 63.5 °F - 57.4 °F 80% 29.86 in 10.0 mi South 20.7 mph 29.9 mph N/A   Clear
7:55 AM 64.2 °F - 57.7 °F 79% 29.91 in 10.0 mi SSW 11.5 mph 26.5 mph N/A   Clear
8:55 AM 66.9 °F - 58.3 °F 74% 29.88 in 10.0 mi South 28.8 mph 36.8 mph N/A   Clear
9:55 AM 69.8 °F - 58.3 °F 67% 29.89 in 10.0 mi South 27.6 mph 36.8 mph 0.01 in   Clear
10:55 AM 73.2 °F - 58.6 °F 60% 29.90 in 10.0 mi South 27.6 mph 36.8 mph N/A   Clear
11:55 AM 76.1 °F - 58.6 °F 55% 29.88 in 10.0 mi South 26.5 mph 39.1 mph N/A   Clear
12:55 PM 78.6 °F - 58.1 °F 49% 29.85 in 10.0 mi South 19.6 mph 28.8 mph N/A   Clear
1:55 PM 80.4 °F 80.7 °F 57.4 °F 45% 29.82 in 10.0 mi South 21.9 mph 26.5 mph N/A   Clear
2:55 PM 81.5 °F 81.4 °F 57.2 °F 43% 29.81 in 10.0 mi South 20.7 mph 26.5 mph N/A   Clear
3:55 PM 81.1 °F 81.1 °F 56.7 °F 43% 29.81 in 10.0 mi South 20.7 mph - N/A   Clear
4:55 PM 79.0 °F - 56.7 °F 46% 29.81 in 10.0 mi South 18.4 mph 25.3 mph N/A   Clear
5:55 PM 76.3 °F - 55.4 °F 48% 29.83 in 10.0 mi South 16.1 mph 25.3 mph N/A   Scattered Clouds
6:55 PM 70.9 °F - 55.2 °F 58% 29.85 in 10.0 mi SSE 11.5 mph - N/A   Clear
7:55 PM 70.9 °F - 55.2 °F 58% 29.86 in 10.0 mi South 17.3 mph - N/A   Clear
8:55 PM 70.7 °F - 54.7 °F 57% 29.86 in 10.0 mi SSE 16.1 mph - N/A   Clear
9:55 PM 71.4 °F - 54.0 °F 54% 29.85 in 10.0 mi South 24.2 mph 38.0 mph N/A   Clear
10:55 PM 70.3 °F - 53.6 °F 55% 29.86 in 10.0 mi South 23.0 mph - N/A   Clear
11:55 PM 68.0 °F - 54.0 °F 61% 29.84 in 10.0 mi SSE 21.9 mph 29.9 mph N/A   Clear